[[{"header":{"parameterUnit":"m.s-1","parameterCategory":1,"la1":30.2991,"la2":30.254,"lo1":-89.0895,"lo2":-89.0444,"dy":0.0017,"dx":0.0017,"nx":28,"ny":28,"refTime":"2024-07-14T21:00:00:Z","depth":0,"parameterNumber":2,"parameterNumberName":"U-component_of_WINDS"},"data":[0,0,0,0,0,0,0,0,0,0,0,0,0,0,0,0,0,0,0,0,0,0,0,0,0,0,0,0,0,0,0,0,0,0,0,0,0,0,0,0,0,0,0,0,0,0,0,0,0,0,0,0,0,0,0,0,0,0,0.5407,0.5407,0,0.5376,0.5376,0.5375,0.5378,0.5378,0.5379,0.5379,0.5349,0.5347,0.5346,0,0,0,0,0,0,0,0,0,0,0,0,0,0.5471,0.5469,0.5407,0.5407,0.5407,0.5376,0.5376,0.5375,0.5378,0.5378,0.5379,0.538,0.5349,0.5347,0.5346,0,0,0,0,0,0,0,0,0,0,0,0,0,0.5442,0.5469,0.5407,0.5404,0.5404,0.5376,0.5376,0.5375,0.5378,0.5378,0.5379,0.538,0.5349,0.5348,0.5346,0.532,0,0,0.534,0.5339,0,0,0,0,0,0,0,0,0.5443,0.5439,0.5405,0.5404,0.5404,0.5382,0.5387,0.5357,0.5378,0.5388,0.5379,0.538,0.5359,0.5356,0.5349,0.5319,0.5317,0.534,0.5339,0.5338,0.5337,0,0,0,0,0,0,0,0.5445,0.5441,0.5395,0.5405,0.5404,0.5405,0.5401,0.5381,0.537,0.5387,0.5387,0.5383,0.5359,0.5351,0.5348,0.5317,0.534,0.5338,0.5337,0.5336,0.5264,0.5263,0,0,0,0,0,0,0.5448,0.5442,0.5396,0.5394,0.5426,0.5403,0.5399,0.5388,0.537,0.5368,0.5383,0.5383,0.5354,0.5351,0.5347,0.5316,0.5338,0.5336,0.5335,0.5265,0.5264,0.5263,0,0,0,0,0,0,0.5449,0.5444,0.5397,0.5418,0.5412,0.5401,0.5388,0.5387,0.5379,0.5367,0.5365,0.5376,0.5354,0.535,0.5327,0.5315,0.5335,0.5334,0.5266,0.5264,0.5263,0.5254,0,0,0,0,0,0,0.5451,0.5444,0.5434,0.5418,0.5411,0.5377,0.5388,0.5386,0.5376,0.5376,0.5361,0.5359,0.5354,0.533,0.5325,0.5313,0.5332,0.5267,0.5265,0.5264,0.5255,0.5252,0.525,0,0,0,0,0,0.5453,0.5433,0.5433,0.5428,0.5398,0.5376,0.5372,0.5368,0.5375,0.5365,0.5357,0.5359,0.5317,0.5327,0.5322,0.5309,0.5267,0.5265,0.5264,0.5256,0.5253,0.525,0,0,0,0,0,0,0.5448,0.5431,0.5431,0.5405,0.5392,0.5377,0.5364,0.5364,0.535,0.5351,0.5346,0.5342,0.5319,0.5312,0.5323,0.5283,0.5293,0.529,0.5289,0.5286,0.5284,0.5286,0.5331,0,0,0,0,0,0.5444,0.5427,0.5413,0.5391,0.5384,0.5375,0.5365,0.5363,0.5349,0.5344,0.5335,0.5322,0.5306,0.5295,0.528,0.5254,0.5251,0.5242,0.524,0.5238,0.5236,0.5222,0.5218,0.5257,0.5257,0.5257,0,0,0.5435,0.5424,0.5413,0.539,0.5379,0.5363,0.5371,0.5352,0.534,0.5342,0.5319,0.5312,0.5297,0.5272,0.5261,0.5265,0.5224,0.5236,0.5234,0.5233,0.5219,0.5216,0.5212,0.5256,0.5256,0.5256,0,0,0.5411,0.54,0.5381,0.537,0.5354,0.5348,0.5344,0.5328,0.5323,0.53,0.5301,0.5286,0.5259,0.5248,0.5239,0.5211,0.5213,0.5206,0.5193,0.5179,0.5176,0.5174,0.5164,0.516,0.5204,0.5203,0.5203,0,0.5402,0.5376,0.5371,0.5352,0.5342,0.5342,0.5323,0.5313,0.5293,0.5286,0.5291,0.5257,0.5247,0.522,0.5213,0.5205,0.52,0.5208,0.5177,0.5174,0.5172,0.5162,0.5159,0.5203,0.5203,0.5203,0.5203,0,0.5367,0.5349,0.5335,0.5315,0.5304,0.5285,0.5277,0.5266,0.5264,0.5257,0.5234,0.5222,0.5205,0.5198,0.5196,0.5171,0.5174,0.5178,0.5188,0.5167,0.5158,0.5155,0.5202,0.5202,0.5202,0.5202,0,0,0.5339,0.5316,0.5311,0.5302,0.5285,0.5271,0.5252,0.5234,0.5225,0.5211,0.5196,0.5172,0.5176,0.5166,0.5163,0.5151,0.5129,0.5156,0.5156,0.5152,0.51,0.5098,0.5094,0.513,0.5129,0.5128,0.5102,0,0.5313,0.5279,0.5274,0.5245,0.5228,0.5228,0.5212,0.5199,0.5193,0.5178,0.5171,0.5154,0.516,0.5154,0.5142,0.5134,0.5119,0.5136,0.5116,0.5115,0.512,0.5089,0.5086,0.5062,0.5098,0.5098,0.5097,0,0.5278,0.5263,0.5232,0.5217,0.521,0.5195,0.5178,0.5164,0.515,0.5146,0.5135,0.5133,0.5114,0.5124,0.5098,0.511,0.5101,0.5096,0.5095,0.5094,0.5105,0.5087,0.5054,0.505,0.5092,0.5092,0.5092,0,0.5262,0.5233,0.5211,0.5204,0.5185,0.5175,0.5167,0.5153,0.5143,0.5128,0.5122,0.5105,0.5096,0.5083,0.5078,0.5085,0.5052,0.5062,0.5049,0.5049,0.5042,0.5043,0.5007,0.5036,0.5036,0.5036,0.5036,0,0.5234,0.5215,0.5204,0.519,0.5169,0.5163,0.5142,0.5135,0.5123,0.5108,0.5106,0.5093,0.5086,0.5071,0.5066,0.5045,0.5041,0.5038,0.5037,0.5038,0.5039,0.5033,0.5035,0.5035,0.5035,0.5035,0.5035,0,0.5212,0.5203,0.5179,0.5163,0.5159,0.5144,0.5131,0.5118,0.5111,0.5092,0.5088,0.5077,0.506,0.5052,0.5031,0.5028,0.5004,0.5004,0.5009,0.5009,0.4996,0.4998,0.4957,0.4951,0.4982,0.4982,0.4982,0,0.5195,0.518,0.5163,0.5153,0.5144,0.5127,0.5117,0.511,0.5099,0.5082,0.5071,0.5053,0.5039,0.5011,0.5002,0.4986,0.4986,0.4972,0.4983,0.4985,0.4986,0.4987,0.4986,0.4971,0.497,0.497,0.497,0,0.5166,0.5162,0.5147,0.513,0.5117,0.5103,0.509,0.5081,0.5073,0.506,0.5042,0.5031,0.5009,0.4992,0.4975,0.4967,0.4967,0.4966,0.4962,0.4964,0.4967,0.4966,0.5004,0.4967,0.4968,0.4968,0.4968,0.4968,0.5146,0.5134,0.5119,0.5102,0.5091,0.5078,0.5065,0.5057,0.5041,0.5023,0.5019,0.5,0.4987,0.4964,0.4955,0.494,0.4944,0.4938,0.4937,0.4936,0.4935,0.4969,0.4937,0.4937,0.4937,0.4937,0.4937,0,0.5118,0.5108,0.5092,0.5073,0.506,0.506,0.5046,0.5034,0.5017,0.5004,0.499,0.4969,0.4952,0.4941,0.4925,0.4915,0.4914,0.4911,0.4912,0.491,0.4933,0.4938,0.4911,0.4911,0.4911,0.4911,0.4911,0.4911,0.5101,0.508,0.5074,0.5047,0.5038,0.5019,0.501,0.4999,0.4989,0.4965,0.4951,0.4944,0.4932,0.4914,0.4899,0.4896,0.489,0.4886,0.4884,0.4905,0.4908,0.4911,0.4916,0.4885,0.4885,0.4862,0.4862,0.4862]},{"header":{"parameterUnit":"m.s-1","parameterCategory":1,"la1":30.2991,"la2":30.254,"lo1":-89.0895,"lo2":-89.0444,"dy":0.0017,"dx":0.0017,"nx":28,"ny":28,"refTime":"2024-07-14T21:00:00:Z","depth":0,"parameterNumber":3,"parameterNumberName":"V-component_of_WINDS"},"data":[0,0,0,0,0,0,0,0,0,0,0,0,0,0,0,0,0,0,0,0,0,0,0,0,0,0,0,0,0,0,0,0,0,0,0,0,0,0,0,0,0,0,0,0,0,0,0,0,0,0,0,0,0,0,0,0,0,0,-1.0271,-1.027,0,-1.0184,-1.0183,-1.0182,-1.0134,-1.0133,-1.0133,-1.0133,-1.0043,-1.0041,-1.0039,0,0,0,0,0,0,0,0,0,0,0,0,0,-1.0392,-1.0391,-1.0271,-1.027,-1.0269,-1.0184,-1.0183,-1.0182,-1.0134,-1.0133,-1.0133,-1.0133,-1.0044,-1.0041,-1.0038,0,0,0,0,0,0,0,0,0,0,0,0,0,-1.0326,-1.039,-1.0271,-1.0234,-1.023,-1.0185,-1.0183,-1.0182,-1.0134,-1.0133,-1.0133,-1.0133,-1.0045,-1.0041,-1.0038,-1.0022,0,0,-1.0028,-1.0026,0,0,0,0,0,0,0,0,-1.033,-1.0322,-1.0241,-1.0237,-1.0232,-1.017,-1.0193,-1.0128,-1.0134,-1.017,-1.0133,-1.0133,-1.0085,-1.0078,-1.0063,-1.0017,-1.0014,-1.0027,-1.0025,-1.0024,-1.0023,0,0,0,0,0,0,0,-1.0335,-1.0325,-1.0236,-1.024,-1.0234,-1.0222,-1.0212,-1.0181,-1.013,-1.0167,-1.0163,-1.0154,-1.0083,-1.0066,-1.006,-1.0012,-1.0027,-1.0024,-1.0022,-1.0021,-0.995,-0.995,0,0,0,0,0,0,-1.0345,-1.0329,-1.0239,-1.0234,-1.0282,-1.022,-1.0209,-1.019,-1.013,-1.0121,-1.0154,-1.0152,-1.0072,-1.0064,-1.0057,-1.0034,-1.0024,-1.0021,-1.0019,-0.995,-0.995,-0.995,0,0,0,0,0,0,-1.0348,-1.0338,-1.0243,-1.0281,-1.0268,-1.0218,-1.0197,-1.0188,-1.0172,-1.012,-1.0111,-1.0147,-1.0071,-1.0062,-1.0031,-1.0031,-1.0019,-1.0016,-0.995,-0.995,-0.995,-0.9989,0,0,0,0,0,0,-1.0352,-1.0339,-1.0333,-1.0281,-1.0266,-1.0219,-1.0197,-1.0187,-1.0166,-1.0162,-1.0111,-1.0102,-1.0071,-1.0036,-1.0028,-1.0026,-1.0013,-0.9949,-0.995,-0.995,-0.9988,-0.9991,-0.9993,0,0,0,0,0,-1.0356,-1.0347,-1.0333,-1.0322,-1.0257,-1.0219,-1.021,-1.0175,-1.0166,-1.0159,-1.0127,-1.0104,-1.0032,-1.0034,-1.0023,-1.002,-0.9949,-0.995,-0.995,-0.9986,-0.999,-0.9993,0,0,0,0,0,0,-1.0399,-1.0339,-1.0323,-1.0296,-1.0263,-1.0211,-1.0201,-1.018,-1.0148,-1.0145,-1.0102,-1.0091,-1.0065,-1.0039,-1.0042,-1.0002,-0.9988,-0.9986,-1.0019,-1.0022,-1.0025,-1.0032,-1.0011,0,0,0,0,0,-1.0405,-1.038,-1.0329,-1.031,-1.0295,-1.0251,-1.0233,-1.0209,-1.0172,-1.0158,-1.0123,-1.0088,-1.0058,-1.0039,-1.0008,-0.9984,-0.9972,-0.9977,-0.9979,-0.9982,-0.9981,-0.9967,-0.9969,-0.9951,-0.9951,-0.9951,0,0,-1.0418,-1.0382,-1.0369,-1.0318,-1.0289,-1.0264,-1.0239,-1.0213,-1.0194,-1.0154,-1.0123,-1.0096,-1.0054,-1.0028,-1.0014,-1.0005,-0.9983,-0.9982,-0.9985,-0.9982,-0.9968,-0.9969,-0.9971,-0.9951,-0.9951,-0.9951,0,0,-1.0428,-1.0399,-1.038,-1.0352,-1.031,-1.0281,-1.0277,-1.0228,-1.0209,-1.0177,-1.0147,-1.0123,-1.0071,-1.0043,-1.0022,-1.0023,-1.0001,-1.0014,-1.0028,-1.0015,-1.0017,-1.0018,-1.0018,-1.0019,-1.0013,-1.0013,-1.0013,0,-1.0449,-1.041,-1.0373,-1.0349,-1.0328,-1.0291,-1.0272,-1.0247,-1.0196,-1.0182,-1.0174,-1.0109,-1.0078,-1.0044,-1.0045,-1.0028,-1.0022,-1.0019,-1.0019,-1.002,-1.002,-1.0021,-1.0021,-1.0015,-1.0015,-1.0014,-1.0014,0,-1.0439,-1.0412,-1.0402,-1.0356,-1.0333,-1.0312,-1.0271,-1.0252,-1.023,-1.0202,-1.0171,-1.0133,-1.0094,-1.0084,-1.0061,-1.0047,-1.0043,-1.0028,-1.0013,-1.0025,-1.0024,-1.0024,-1.0018,-1.0017,-1.0016,-1.0016,0,0,-1.0473,-1.0407,-1.0404,-1.0382,-1.0333,-1.0312,-1.0289,-1.0252,-1.0237,-1.0203,-1.0183,-1.0141,-1.0126,-1.0102,-1.0076,-1.0065,-1.0068,-1.005,-1.0049,-1.0056,-1.0051,-1.0063,-1.0064,-1.0053,-1.0053,-1.0053,-1.0055,0,-1.0477,-1.0435,-1.0401,-1.0371,-1.0347,-1.0311,-1.0291,-1.0259,-1.0232,-1.0207,-1.0177,-1.0148,-1.0131,-1.0116,-1.0103,-1.0071,-1.0067,-1.007,-1.0034,-1.0033,-1.0046,-1.0064,-1.0077,-1.008,-1.0054,-1.0054,-1.0054,0,-1.0475,-1.0445,-1.0413,-1.0367,-1.0355,-1.0338,-1.0302,-1.0278,-1.024,-1.0222,-1.0196,-1.0169,-1.0143,-1.0131,-1.0094,-1.0097,-1.008,-1.0062,-1.0061,-1.0057,-1.0045,-1.0061,-1.008,-1.0081,-1.0053,-1.0053,-1.0053,0,-1.0505,-1.0455,-1.043,-1.0412,-1.0358,-1.0347,-1.0323,-1.0286,-1.0266,-1.0234,-1.022,-1.0185,-1.0166,-1.014,-1.0104,-1.0098,-1.0072,-1.0056,-1.0055,-1.0056,-1.0052,-1.0053,-1.007,-1.004,-1.004,-1.004,-1.004,0,-1.0513,-1.0495,-1.0442,-1.0427,-1.0406,-1.0367,-1.0347,-1.0321,-1.0288,-1.0266,-1.0233,-1.0214,-1.0167,-1.0142,-1.0114,-1.0089,-1.008,-1.0064,-1.0057,-1.0067,-1.007,-1.0056,-1.0055,-1.004,-1.004,-1.004,-1.004,0,-1.0543,-1.0506,-1.0477,-1.0428,-1.0415,-1.0402,-1.036,-1.0344,-1.0315,-1.0289,-1.028,-1.0235,-1.0204,-1.0166,-1.0122,-1.0103,-1.0081,-1.0069,-1.0094,-1.009,-1.0091,-1.0092,-1.0101,-1.01,-1.0071,-1.0071,-1.0071,0,-1.055,-1.0536,-1.0486,-1.047,-1.0448,-1.0422,-1.0402,-1.0363,-1.0343,-1.03,-1.0289,-1.0255,-1.0226,-1.0178,-1.0141,-1.0107,-1.0095,-1.0101,-1.009,-1.0102,-1.0096,-1.0098,-1.0097,-1.0104,-1.0104,-1.0105,-1.0105,0,-1.0569,-1.0552,-1.0524,-1.0491,-1.0468,-1.0439,-1.0409,-1.0398,-1.0353,-1.0332,-1.03,-1.0278,-1.0234,-1.0201,-1.0163,-1.0138,-1.0114,-1.0109,-1.0107,-1.0118,-1.0133,-1.0126,-1.0102,-1.0109,-1.0109,-1.0108,-1.0108,-1.0108,-1.0588,-1.0574,-1.0537,-1.0508,-1.0481,-1.0454,-1.0437,-1.0407,-1.038,-1.0341,-1.032,-1.0289,-1.0251,-1.0198,-1.0174,-1.0149,-1.014,-1.0138,-1.0137,-1.0137,-1.0141,-1.0137,-1.0142,-1.0142,-1.0142,-1.0141,-1.0141,0,-1.0605,-1.058,-1.0553,-1.0513,-1.049,-1.047,-1.0436,-1.0418,-1.0392,-1.0359,-1.0332,-1.0296,-1.0264,-1.0225,-1.019,-1.0178,-1.0166,-1.017,-1.0171,-1.0166,-1.015,-1.0156,-1.018,-1.018,-1.018,-1.018,-1.018,-1.018,-1.0611,-1.0587,-1.0566,-1.0528,-1.0502,-1.0473,-1.0455,-1.043,-1.0404,-1.0366,-1.0339,-1.0314,-1.0279,-1.0242,-1.0212,-1.0201,-1.019,-1.0198,-1.0184,-1.017,-1.0167,-1.0164,-1.0169,-1.0196,-1.0196,-1.0202,-1.0202,-1.0202]}]]